Liberia, Costa Rica

4:51 AM CST on February 10, 2016 (GMT -0600)
Liberia

Weather History for 78774 - December, 2013

Change the Weather History Date:

Friday, December 6, 2013

  Actual Average Record
Temperature  
Mean Temperature 82 °F -  
Max Temperature 92 °F 87 °F - ()
Min Temperature 71 °F 72 °F - ()
Cooling Degree Days 16    
Growing Degree Days 32 (Base 50)    
Moisture  
Dew Point 69 °F    
Average Humidity 58    
Maximum Humidity 83    
Minimum Humidity 37    
Precipitation  
Precipitation 0.00 in - - ()
Sea Level Pressure  
Sea Level Pressure 29.84 in    
Wind  
Wind Speed 7 mph ()    
Max Wind Speed 15 mph    
Max Gust Speed 23 mph    
Visibility 8.3 miles    
Events      
T = Trace of Precipitation, MM = Missing Value Source: Averaged Metar Reports

Daily Weather History Graph

Daily Weather History Graph

Search for Another Location

Airport or City:

Trip Planner

Search our weather history database for the weather conditions in past years. The results will help you decide how hot, cold, wet, or windy it might be!

Date:

Astronomy

Dec. 06, 2013 Rise Set
Actual Time 5:47 AM CST 5:19 PM CST
Civil Twilight 5:24 AM CST 5:42 PM CST
Nautical Twilight 4:58 AM CST 6:08 PM CST
Astronomical Twilight 4:32 AM CST 6:34 PM CST
Moon 9:15 AM CST (12/6) 9:21 PM CST (12/6)
Length of Visible Light 12h 17m
Length of Day
11h 31m
Waxing Crescent, 19% of the Moon is Illuminated
Dec 6
Waxing Crescent
Dec 9
First Quarter
Dec 17
Full
Dec 25
Last Quarter
Jan 1
New

Hourly Weather History & Observations

Time (CST) Temp. Heat Index Dew Point Humidity Pressure Visibility Wind Dir Wind Speed Gust Speed Precip Events Conditions
6:00 AM 73 °F - 68 °F 79% 29.87 in 12 mi Calm Calm - -   Scattered Clouds
6:00 AM 73.4 °F - 68.0 °F 83% 29.84 in - Calm Calm - N/A   Clear
7:00 AM 78.8 °F - 69.8 °F 74% 29.85 in - ESE 8.1 mph - N/A   Clear
8:00 AM 84.2 °F 88.4 °F 69.8 °F 62% 29.86 in - East 10.4 mph - N/A   Clear
9:00 AM 87 °F - 69 °F 46% 29.90 in 12 mi East 11.5 mph - -   Scattered Clouds
9:00 AM 87.8 °F 92.6 °F 69.8 °F 55% 29.87 in - East 11.5 mph 23.0 mph N/A   Clear
10:00 AM 87.8 °F 91.4 °F 68.0 °F 52% 29.87 in 6.2 mi East 13.8 mph - N/A   Partly Cloudy
11:00 AM 89.6 °F 93.4 °F 68.0 °F 49% 29.85 in 6.2 mi ENE 13.8 mph - N/A   Partly Cloudy
12:00 PM 91 °F - 68 °F 37% 29.85 in 12 mi East 11.5 mph - -   Scattered Clouds
12:00 PM 91.4 °F 95.4 °F 68.0 °F 46% 29.82 in 6.2 mi East 11.5 mph - N/A   Partly Cloudy
1:00 PM 89.6 °F 94.7 °F 69.8 °F 52% 29.80 in 6.2 mi East 11.5 mph - N/A   Scattered Clouds
2:00 PM 91.4 °F 96.8 °F 69.8 °F 49% 29.78 in 6.2 mi East 11.5 mph - N/A   Scattered Clouds
3:00 PM 91 °F - 69 °F 40% 29.81 in 12 mi ENE 15.0 mph - -   Partly Cloudy
3:00 PM 91.4 °F 96.8 °F 69.8 °F 49% 29.77 in 6.2 mi ENE 15.0 mph - N/A   Scattered Clouds
4:00 PM 87.8 °F 92.6 °F 69.8 °F 55% - 6.2 mi East 11.5 mph - N/A   Scattered Clouds
5:00 PM 84.2 °F 88.4 °F 69.8 °F 62% 29.80 in 6.2 mi East 5.8 mph - N/A   Mostly Cloudy
6:00 PM 82 °F - 70 °F 59% 29.85 in 12 mi East 4.6 mph - -   Overcast
6:00 PM 82.4 °F 86.3 °F 69.8 °F 66% 29.81 in 6.2 mi East 4.6 mph - N/A   Mostly Cloudy
7:00 PM 80.6 °F 83.9 °F 69.8 °F 70% 29.84 in - East 4.6 mph - N/A   Clear
8:00 PM 80.6 °F 83.9 °F 69.8 °F 70% 29.87 in - East 5.8 mph - N/A   Clear